Flag for U.S.A. Weather past 2 weeks in Manhattan, Kansas, U.S.A.

Now
65 °F

Clear.


Feels Like: 65 °F
Forecast: 56 / 74 °F
Wind: No wind

Location: Manhattan Municipal Airport

Current Time: Sep 21, 2014 at 2:12:32 AM

Latest Report: Sep 21, 2014 at 12:52 AM


Visibility: 10 mi

Pressure: 30.01 "Hg

Humidity: 97%

Dew point: 64 °F

Location of ManhattanLocation

Historic Weather in Manhattan — Graph

°F

Manhattan temperature yesterday

Maximum temperature yesterday: 91 °F (at 2:52 PM)
Minimum temperature yesterday: 65 °F (at 11:52 PM)
Average temperature yesterday: 75 °F

Past Weeks' High & Low Weather Summary

 TemperatureHumidityPressure
High97 °F (Sep 9, 3:52 PM)100% (Sep 13, 3:59 AM)30.45 "Hg (Sep 13, 3:59 AM)
Low36 °F (Sep 13, 3:59 AM)35% (Sep 7, 2:52 PM)29.49 "Hg (Sep 9, 9:52 PM)
Average66 °F75%30.05 "Hg
* Reported Sep 6 1:52 AM — Sep 21 12:52 AM, Manhattan, Weather by CustomWeather, © 2014

Note: Actual official high and low records may vary slightly from our data, if they occured in-between our weather recording intervals... More about our weather records

Advertising

Manhattan weather history for previous 24 hours

 ConditionsComfort  
Time TempWeatherWind HumidityBarometerVisibility
12:52 AM
Sep 21
65 °FClear.No wind97%30.01 "Hg10 mi
11:52 PM
Sep 20
65 °FClear.No wind97%30.01 "Hg10 mi
10:52 PM67 °FClear.5 mph93%29.99 "Hg10 mi
9:52 PM69 °FClear.3 mph93%29.98 "Hg10 mi
8:52 PM71 °FClear.3 mph90%29.97 "Hg10 mi
7:52 PM73 °FSunny.7 mph84%29.95 "Hg10 mi
6:52 PM75 °FSunny.5 mph82%29.93 "Hg10 mi
5:52 PM76 °FBroken clouds.8 mph80%29.92 "Hg10 mi
4:52 PM77 °FOvercast.15 mph79%29.90 "Hg10 mi
3:52 PM89 °FBroken clouds.12 mph46%29.87 "Hg10 mi
2:52 PM91 °FPassing clouds.10 mph45%29.88 "Hg10 mi
1:52 PM90 °FSunny.14 mph47%29.91 "Hg10 mi
12:52 PM88 °FSunny.10 mph54%29.93 "Hg10 mi
7:52 AM68 °FFog.No wind93%29.93 "Hg3 mi
6:52 AM69 °FFog.8 mph93%29.90 "Hg5 mi
5:52 AM70 °FFog.10 mph93%29.89 "Hg5 mi
4:52 AM70 °FFog.9 mph93%29.88 "Hg5 mi
3:52 AM71 °FFog.13 mph90%29.88 "Hg6 mi
2:52 AM71 °FClear.13 mph90%29.87 "Hg7 mi
Weather by CustomWeather, © 2014

See weather overviewHow to use our weather pages